Location: Lligwy
(53.3500°N, 4.2667°W)
Time: 13:45:30
(UTC+00:00)

Daily predictions for brighter satellites

Satellite Brightness Start Highest point End
(mag) Time Altitude Azimuth Time Altitude Azimuth Time Altitude Azimuth
Cosmos 2082 Rocket 3.3 21:29:30 10° SSE 21:34:06 26° ESE 21:38:43 10° NE
USA 245 3.7 21:32:01 10° S 21:35:53 54° WSW 21:39:01 10° NNW
Cosmos 1536 Rocket 3.6 21:32:09 10° S 21:36:29 87° W 21:40:53 10° N
Cosmos 1606 Rocket 3.6 21:34:09 10° N 21:38:29 67° ENE 21:42:48 10° SSE
ARIANE 5 R/B 2.9 21:36:18 10° SSE 21:40:40 57° ENE 21:45:00 10° N
Cosmos 2360 Rocket 4.2 21:37:32 10° NNW 21:41:56 22° NNE 21:46:18 10° E
Meteor 1-21 Rocket 4.3 21:39:25 10° S 21:44:57 64° E 21:50:38 10° NNE
SPOT 3 Rocket 4.5 21:48:18 10° S 21:53:17 46° W 21:58:20 10° NNW
Cosmos 1726 Rocket 3.5 21:56:52 10° N 22:01:12 86° ENE 22:05:32 10° S
Cosmos 1892 3.7 22:02:06 11° SSE 22:05:16 30° E 22:08:38 10° NNE
Nadezhda 1 Rocket 4.0 22:05:37 10° S 22:11:42 88° W 22:17:49 10° N
USA 234 3.4 22:07:53 10° ESE 22:14:26 80° NNE 22:21:02 10° WNW
SL-16 R/B 3.0 22:10:01 10° NNW 22:15:29 46° NE 22:20:57 10° ESE
Cosmos 1980 Rocket 2.4 22:09:53 10° NW 22:15:34 69° WSW 22:20:52 12° SSE
Cosmos 1697 Rocket 3.7 22:10:24 10° NW 22:15:36 39° WSW 22:20:45 10° S
Cosmos 1486 Rocket 4.3 22:11:02 10° NNW 22:16:14 61° ENE 22:21:05 12° SE
Cosmos 2219 Rocket 4.4 22:14:44 10° NNW 22:18:57 21° NNE 22:23:10 10° ENE
Cosmos 2369 4.1 22:13:31 10° NW 22:19:10 60° WSW 22:24:30 11° SSE
Cosmos 1331 Rocket 4.2 22:15:17 10° SSW 22:20:36 79° WNW 22:25:57 10° NNE
CZ-2C R/B 3.8 22:19:38 10° NNE 22:24:13 79° WNW 22:28:43 10° SSW
Cosmos-2242 4.4 22:24:04 10° N 22:27:42 27° ENE 22:31:12 11° SE
COSMOS 2406 3.2 22:22:11 10° SSW 22:27:56 76° ESE 22:33:42 10° NE
ATLAS 5 CENTAUR R/B 2.5 22:29:23 14° SSE 22:31:34 23° ESE 22:34:50 10° ENE
CZ-4B R/B 4.4 22:31:09 10° NW 22:32:01 11° WNW 22:32:54 10° WNW
Cosmos 1869 3.6 22:28:15 10° N 22:32:05 54° ENE 22:35:09 15° SSE
SPOT 5 4.3 22:30:23 10° SSW 22:34:05 27° W 22:37:48 10° NW
In-Cosmos 22 Rocket 4.4 22:30:23 12° S 22:35:20 52° E 22:40:36 10° NNE
Meteor 1-27 4.2 22:32:13 10° NNW 22:37:49 77° ENE 22:42:35 14° SSE
FALCON 9 DEB 3.5 22:37:02 10° W 22:40:08 40° SSW 22:42:17 17° SE
Terra 3.0 22:35:59 10° SSW 22:40:22 36° W 22:44:47 10° NNW
ASTEX 1 3.4 22:36:11 10° N 22:41:14 79° E 22:45:50 12° S
ALOS 2 3.8 22:39:48 11° SE 22:43:30 34° ENE 22:47:29 10° N
Cosmos 1833 Rocket 3.3 22:38:17 10° SW 22:43:50 59° NW 22:49:25 10° NNE
Cosmos 1892 Rocket 3.8 22:41:50 10° SSW 22:46:12 70° WNW 22:50:35 10° N
BREEZE-M DEB (TANK) 3.3 22:44:09 10° WSW 22:46:53 53° S 22:55:25 10° ESE
SL-8 Rocket 4.1 22:41:13 10° NNW 22:47:29 80° W 22:53:00 13° S
Cosmos 2058 Rocket 3.5 22:44:22 10° NNW 22:48:43 56° W 22:52:35 13° S
Cosmos 1302 Rocket 4.0 22:45:51 10° SSW 22:51:03 85° WNW 22:56:18 10° NNE
Cosmos 2322 Rocket 2.7 22:45:27 10° NNW 22:51:04 58° NE 22:56:24 11° SE
Cosmos 1825 2.3 22:49:40 17° S 22:52:21 55° E 22:56:03 10° NNE
ADEOS Rocket 4.0 22:45:43 12° SE 22:52:32 57° ENE 23:00:06 10° N
Cosmos 1408 2.7 22:50:12 11° SSW 22:53:25 67° WNW 22:56:53 10° N
Cosmos 1503 Rocket 4.1 22:48:56 10° NNW 22:54:17 74° ENE 22:58:35 16° SSE
Cosmos 1626 Rocket 3.7 22:54:44 16° S 22:58:00 59° E 23:02:19 10° NNE
USA 276 2.8 22:58:49 10° W 23:01:35 32° SSW 23:02:50 22° SSE
Cosmos 2278 4.1 22:56:16 10° NW 23:01:50 54° WSW 23:06:17 16° S
Meteor 1-11 4.4 22:58:29 10° SSW 23:04:03 71° WNW 23:09:40 10° N
Cosmos 2333 Rocket 3.4 23:00:44 10° NNW 23:06:07 38° NE 23:11:30 10° ESE
Cosmos 2366 rocket 4.2 23:00:15 10° NNW 23:06:34 71° W 23:12:00 14° S
SJ 16-02 1.6 23:04:31 10° NNW 23:08:57 62° ENE 23:12:19 17° SE
Cosmos 2218 Rocket 4.3 23:03:46 10° NNW 23:10:09 67° W 23:15:36 14° S
GP-B 3.9 23:12:45 10° N 23:17:01 47° W 23:21:00 11° SSW
Cosmos 2082 Rocket 2.5 23:12:01 10° SW 23:17:43 71° NW 23:23:26 10° NNE
SAR-Lupe-4 4.1 23:14:17 10° N 23:17:49 56° WNW 23:21:03 12° SSW
H-2A R/B 4.2 23:14:29 10° NNE 23:18:27 39° E 23:20:55 20° SSE
USA 267 3.4 23:14:38 10° ENE 23:21:00 51° SE 23:27:19 10° SW
Cosmos 2221 4.1 23:21:04 10° N 23:24:50 27° ENE 23:28:17 11° SE
Cosmos 1606 2.9 23:22:00 10° N 23:25:51 64° ENE 23:28:16 21° SSE
Cosmos 2360 Rocket 2.5 23:21:19 10° NNW 23:27:00 68° NE 23:32:00 14° SE
Cosmos 1934 Rocket 4.5 23:22:14 10° N 23:28:11 52° ENE 23:33:06 15° SE
Cosmos 2058 3.9 23:26:08 19° SE 23:28:34 34° E 23:32:22 10° NNE
Spot 4 4.0 23:27:39 19° S 23:31:03 66° WSW 23:35:52 10° NNW
Okean 1-7 Rocket 4.3 23:36:05 12° SSW 23:40:01 52° WNW 23:44:28 10° N
Cosmos 1892 4.4 23:37:34 10° SW 23:40:50 27° WNW 23:44:08 10° N
Cosmos 2237 4.3 23:36:59 10° NW 23:42:42 72° WSW 23:46:53 19° SSE
Cosmos 1633 2.6 23:45:55 21° SSW 23:48:07 66° WNW 23:51:35 10° N
Cosmos 1758 Rocket 3.5 23:45:44 20° SSW 23:48:44 87° WNW 23:53:11 10° N
Cosmos 2237 Rocket 4.4 23:46:25 10° NNW 23:50:59 24° NNE 23:55:32 10° E
COSMOS 2428 3.8 23:47:30 10° NNW 23:52:56 42° NE 23:58:20 10° ESE
